Flag for Netherlands Weather past 2 weeks in Eindhoven, Netherlands

Now
61 °F

Light rain. Partly sunny.


Feels Like: 61 °F
Forecast: 48 / 61 °F
Wind: 7 mph from North

Location: Eindhoven Airport

Current Time: Sep 21, 2014 at 9:16:28 AM

Latest Report: Sep 21, 2014 at 8:25 AM


Visibility: 3 mi

Pressure: 30.01 "Hg

Humidity: 94%

Dew point: 59 °F

Location of EindhovenLocation

Historic Weather in Eindhoven — Graph

°F

Eindhoven temperature yesterday

Maximum temperature yesterday: 73 °F (at 3:25 PM)
Minimum temperature yesterday: 57 °F (at 1:55 AM)
Average temperature yesterday: 64 °F

Past Weeks' High & Low Weather Summary

 TemperatureHumidityPressure
High77 °F (Sep 17, 2:25 PM)100% (Sep 6, 8:55 AM)30.27 "Hg (Sep 6, 8:55 AM)
Low46 °F (Sep 9, 3:25 AM)47% (Sep 17, 3:25 PM)29.80 "Hg (Sep 18, 5:25 AM)
Average62 °F83%30.02 "Hg
* Reported Sep 6 8:25 AM — Sep 21 8:01 AM, Eindhoven, Weather by CustomWeather, © 2014

Note: Actual official high and low records may vary slightly from our data, if they occured in-between our weather recording intervals... More about our weather records

Advertising

Eindhoven weather history for previous 24 hours

 ConditionsComfort  
Time TempWeatherWind HumidityBarometerVisibility
8:01 AM
Sep 21
61 °FRain. Passing clouds.7 mph94%30.01 "Hg2 mi
7:55 AM61 °FRain showers. Partly cloudy.6 mph94%29.98 "Hg2 mi
7:25 AM61 °FFog.5 mph94%29.98 "Hg2 mi
6:59 AM61 °FFog.3 mph94%29.98 "Hg2 mi
6:25 AM61 °FFog.3 mph94%29.98 "Hg2 mi
5:55 AM61 °FFog.3 mph94%29.98 "Hg2 mi
5:25 AM61 °FFog.3 mph94%29.98 "Hg2 mi
4:55 AM61 °FFog.5 mph94%29.98 "Hg2 mi
4:25 AM61 °FFog.5 mph94%29.98 "Hg2 mi
4:04 AM61 °FFog.5 mph88%29.98 "Hg2 mi
3:55 AM61 °FFog.5 mph94%29.98 "Hg2 mi
3:25 AM61 °FFog.6 mph94%29.98 "Hg2 mi
2:55 AM63 °FFog.5 mph88%29.98 "Hg2 mi
2:25 AM63 °FFog.5 mph88%29.98 "Hg2 mi
1:55 AM63 °FFog.7 mph88%29.98 "Hg2 mi
1:25 AM63 °FFog.5 mph94%29.98 "Hg2 mi
12:55 AM63 °FFog.5 mph94%29.98 "Hg2 mi
12:25 AM63 °FFog.5 mph94%29.98 "Hg2 mi
11:55 PM
Sep 20
64 °FFog.5 mph88%29.98 "Hg2 mi
11:25 PM64 °FFog.6 mph88%29.98 "Hg2 mi
10:25 PM64 °FFog.8 mph88%29.98 "Hg2 mi
9:55 PM64 °FFog.7 mph94%29.98 "Hg2 mi
9:25 PM64 °FFog.5 mph88%29.98 "Hg2 mi
8:55 PM66 °FFog.5 mph83%29.98 "Hg2 mi
8:25 PM66 °FFog.6 mph88%29.95 "Hg2 mi
8:00 PM66 °FFog.6 mph88%29.95 "Hg2 mi
7:55 PM66 °FFog.5 mph88%29.95 "Hg2 mi
3:25 PM73 °FHaze.5 mph74%29.92 "Hg3 mi
2:55 PM70 °FThunderstorms. Fog.3 mph83%29.95 "Hg3 mi
2:25 PM70 °FThunderstorms. Fog.3 mph83%29.95 "Hg3 mi
1:55 PM72 °FBroken clouds.3 mph78%29.95 "Hg2 mi
1:25 PM72 °FMore clouds than sun.3 mph78%29.95 "Hg2 mi
12:55 PM72 °FOvercast.3 mph78%29.95 "Hg3 mi
12:25 PM70 °FScattered clouds.3 mph78%29.95 "Hg3 mi
11:55 AM70 °FMostly cloudy.2 mph78%29.95 "Hg4 mi
11:25 AM68 °FFog.2 mph83%29.95 "Hg4 mi
11:00 AM66 °FFog.1 mph83%29.95 "Hg2 mi
10:55 AM64 °FFog.1 mph88%29.92 "Hg2 mi
10:25 AM63 °FFog.2 mph100%29.95 "Hg1 mi
10:00 AM63 °FFog.3 mph94%29.92 "Hg1 mi
9:55 AM63 °FFog.3 mph94%29.92 "Hg1 mi
9:25 AM63 °FFog.3 mph100%29.92 "Hg0 mi
Weather by CustomWeather, © 2014

See weather overviewHow to use our weather pages